Time,TemperatureF,DewpointF,PressureIn,WindDirection,WindDirectionDegrees,WindSpeedMPH,WindSpeedGustMPH,Humidity,HourlyPrecipIn,Conditions,Clouds,dailyrainin,SoftwareType,DateUTC
2013-02-16 00:00:00,21.4,14.7,30.30,West,274,0.0,14.0,75,0.00,,,0.00,Wunderground v.1.13,2013-02-16 07:00:00,
2013-02-16 00:05:00,21.8,15.1,30.29,West,274,0.0,14.0,75,0.00,,,0.00,Wunderground v.1.13,2013-02-16 07:05:00,
2013-02-16 00:10:00,21.8,15.1,30.29,West,274,0.0,14.0,75,0.00,,,0.00,Wunderground v.1.13,2013-02-16 07:10:00,
2013-02-16 00:15:00,21.9,15.2,30.29,West,274,0.0,14.0,75,0.00,,,0.00,Wunderground v.1.13,2013-02-16 07:15:00,
2013-02-16 00:20:00,21.9,15.2,30.29,West,274,0.0,14.0,75,0.00,,,0.00,Wunderground v.1.13,2013-02-16 07:20:00,
2013-02-16 00:25:00,22.1,15.7,30.29,West,274,0.0,14.0,76,0.00,,,0.00,Wunderground v.1.13,2013-02-16 07:25:00,
2013-02-16 00:30:00,22.1,15.7,30.29,West,274,0.0,14.0,76,0.00,,,0.00,Wunderground v.1.13,2013-02-16 07:30:00,
2013-02-16 00:35:00,22.1,15.7,30.28,West,274,0.0,14.0,76,0.00,,,0.00,Wunderground v.1.13,2013-02-16 07:35:00,
2013-02-16 00:40:00,22.4,16.0,30.28,West,274,0.0,14.0,76,0.00,,,0.00,Wunderground v.1.13,2013-02-16 07:40:00,
2013-02-16 00:45:00,22.9,16.8,30.28,West,259,1.0,1.0,77,0.00,,,0.00,Wunderground v.1.13,2013-02-16 07:45:00,
2013-02-16 00:55:00,23.3,16.9,30.27,WSW,250,1.0,14.0,76,0.00,,,0.00,Wunderground v.1.13,2013-02-16 07:55:00,
2013-02-16 01:00:00,23.5,17.3,30.27,WSW,255,2.0,2.0,77,0.00,,,0.00,Wunderground v.1.13,2013-02-16 08:00:00,
2013-02-16 01:05:00,23.5,17.3,30.25,WSW,256,2.0,2.0,77,0.00,,,0.00,Wunderground v.1.13,2013-02-16 08:05:00,
2013-02-16 01:10:00,23.6,17.4,30.25,West,265,1.0,1.0,77,0.00,,,0.00,Wunderground v.1.13,2013-02-16 08:10:00,
2013-02-16 01:15:00,23.6,17.4,30.25,West,270,1.0,1.0,77,0.00,,,0.00,Wunderground v.1.13,2013-02-16 08:15:00,
2013-02-16 01:20:00,23.6,17.4,30.25,West,270,0.0,14.0,77,0.00,,,0.00,Wunderground v.1.13,2013-02-16 08:20:00,
2013-02-16 01:30:00,23.8,17.6,30.25,West,270,0.0,14.0,77,0.00,,,0.00,Wunderground v.1.13,2013-02-16 08:30:00,
2013-02-16 01:35:00,23.9,17.7,30.24,West,270,0.0,14.0,77,0.00,,,0.00,Wunderground v.1.13,2013-02-16 08:35:00,
2013-02-16 01:40:00,23.9,17.7,30.24,West,270,0.0,14.0,77,0.00,,,0.00,Wunderground v.1.13,2013-02-16 08:40:00,
2013-02-16 01:45:00,24.1,17.9,30.24,West,270,0.0,14.0,77,0.00,,,0.00,Wunderground v.1.13,2013-02-16 08:45:00,
2013-02-16 01:50:00,24.2,18.0,30.23,West,269,0.0,14.0,77,0.00,,,0.00,Wunderground v.1.13,2013-02-16 08:50:00,
2013-02-16 01:55:00,24.4,17.9,30.23,West,271,0.0,14.0,76,0.00,,,0.00,Wunderground v.1.13,2013-02-16 08:55:00,
2013-02-16 02:05:00,24.7,18.2,30.21,West,271,0.0,14.0,76,0.00,,,0.00,Wunderground v.1.13,2013-02-16 09:05:00,
2013-02-16 02:10:00,24.8,18.3,30.21,West,271,0.0,14.0,76,0.00,,,0.00,Wunderground v.1.13,2013-02-16 09:10:00,
2013-02-16 02:15:00,24.8,18.3,30.21,West,271,0.0,14.0,76,0.00,,,0.00,Wunderground v.1.13,2013-02-16 09:15:00,
2013-02-16 02:20:00,25.0,18.5,30.20,West,271,0.0,14.0,76,0.00,,,0.00,Wunderground v.1.13,2013-02-16 09:20:00,
2013-02-16 02:25:00,25.0,18.5,30.20,West,271,0.0,14.0,76,0.00,,,0.00,Wunderground v.1.13,2013-02-16 09:25:00,
2013-02-16 02:30:00,25.1,18.6,30.20,West,271,0.0,14.0,76,0.00,,,0.00,Wunderground v.1.13,2013-02-16 09:30:00,
2013-02-16 02:40:00,25.4,18.6,30.19,West,268,0.0,14.0,75,0.00,,,0.00,Wunderground v.1.13,2013-02-16 09:40:00,
2013-02-16 02:45:00,25.6,18.5,30.19,West,271,0.0,14.0,74,0.00,,,0.00,Wunderground v.1.13,2013-02-16 09:45:00,
2013-02-16 02:50:00,25.8,18.7,30.18,West,268,1.0,1.0,74,0.00,,,0.00,Wunderground v.1.13,2013-02-16 09:50:00,
2013-02-16 02:55:00,26.1,18.6,30.18,WSW,250,3.0,3.0,73,0.00,,,0.00,Wunderground v.1.13,2013-02-16 09:55:00,
2013-02-16 03:05:00,26.3,18.8,30.18,West,263,0.0,14.0,73,0.00,,,0.00,Wunderground v.1.13,2013-02-16 10:05:00,
2013-02-16 03:15:00,26.3,18.5,30.18,West,263,0.0,14.0,72,0.00,,,0.00,Wunderground v.1.13,2013-02-16 10:15:00,
2013-02-16 03:20:00,26.3,18.5,30.17,West,267,0.0,14.0,72,0.00,,,0.00,Wunderground v.1.13,2013-02-16 10:20:00,
2013-02-16 03:25:00,26.3,18.8,30.17,West,267,0.0,14.0,73,0.00,,,0.00,Wunderground v.1.13,2013-02-16 10:25:00,
2013-02-16 03:30:00,26.3,18.8,30.17,West,267,0.0,14.0,73,0.00,,,0.00,Wunderground v.1.13,2013-02-16 10:30:00,
2013-02-16 03:35:00,26.4,18.9,30.16,West,267,0.0,14.0,73,0.00,,,0.00,Wunderground v.1.13,2013-02-16 10:35:00,
2013-02-16 03:40:00,26.6,19.1,30.16,West,267,0.0,14.0,73,0.00,,,0.00,Wunderground v.1.13,2013-02-16 10:40:00,
2013-02-16 03:45:00,26.7,19.2,30.16,West,267,1.0,1.0,73,0.00,,,0.00,Wunderground v.1.13,2013-02-16 10:45:00,
2013-02-16 03:50:00,26.9,19.4,30.15,West,266,1.0,1.0,73,0.00,,,0.00,Wunderground v.1.13,2013-02-16 10:50:00,
2013-02-16 04:00:00,27.2,19.7,30.15,West,265,1.0,1.0,73,0.00,,,0.00,Wunderground v.1.13,2013-02-16 11:00:00,
2013-02-16 04:05:00,27.2,19.7,30.14,West,267,0.0,14.0,73,0.00,,,0.00,Wunderground v.1.13,2013-02-16 11:05:00,
2013-02-16 04:10:00,27.3,19.5,30.14,West,260,0.0,14.0,72,0.00,,,0.00,Wunderground v.1.13,2013-02-16 11:10:00,
2013-02-16 04:15:00,27.6,19.8,30.14,WSW,254,2.0,2.0,72,0.00,,,0.00,Wunderground v.1.13,2013-02-16 11:15:00,
2013-02-16 04:20:00,27.9,19.7,30.14,West,259,2.0,2.0,71,0.00,,,0.00,Wunderground v.1.13,2013-02-16 11:20:00,
2013-02-16 04:30:00,28.2,19.7,30.14,WSW,252,3.0,14.0,70,0.00,,,0.00,Wunderground v.1.13,2013-02-16 11:30:00,
2013-02-16 04:35:00,28.4,19.9,30.12,WSW,247,5.0,5.0,70,0.00,,,0.00,Wunderground v.1.13,2013-02-16 11:35:00,
2013-02-16 04:40:00,28.4,19.9,30.12,WSW,246,5.0,5.0,70,0.00,,,0.00,Wunderground v.1.13,2013-02-16 11:40:00,
2013-02-16 04:50:00,28.4,19.9,30.12,WSW,247,4.0,4.0,70,0.00,,,0.00,Wunderground v.1.13,2013-02-16 11:50:00,
2013-02-16 04:55:00,28.4,19.9,30.12,West,264,4.0,14.0,70,0.00,,,0.00,Wunderground v.1.13,2013-02-16 11:55:00,
2013-02-16 05:00:00,28.4,19.9,30.12,West,266,3.0,3.0,70,0.00,,,0.00,Wunderground v.1.13,2013-02-16 12:00:00,
2013-02-16 05:10:00,28.4,20.2,30.11,WSW,244,3.0,14.0,71,0.00,,,0.00,Wunderground v.1.13,2013-02-16 12:10:00,
2013-02-16 05:15:00,28.4,20.2,30.11,West,259,3.0,14.0,71,0.00,,,0.00,Wunderground v.1.13,2013-02-16 12:15:00,
2013-02-16 05:25:00,28.4,20.2,30.10,West,272,4.0,4.0,71,0.00,,,0.00,Wunderground v.1.13,2013-02-16 12:25:00,
2013-02-16 05:30:00,28.4,20.2,30.10,WNW,284,3.0,14.0,71,0.00,,,0.00,Wunderground v.1.13,2013-02-16 12:30:00,
2013-02-16 05:35:00,28.4,20.5,30.10,West,261,3.0,3.0,72,0.00,,,0.00,Wunderground v.1.13,2013-02-16 12:35:00,
2013-02-16 05:40:00,28.4,20.5,30.10,WNW,291,2.0,14.0,72,0.00,,,0.00,Wunderground v.1.13,2013-02-16 12:40:00,
2013-02-16 05:50:00,28.4,20.8,30.10,WSW,245,3.0,14.0,73,0.00,,,0.00,Wunderground v.1.13,2013-02-16 12:50:00,
2013-02-16 05:55:00,28.5,20.9,30.10,WSW,244,3.0,3.0,73,0.00,,,0.00,Wunderground v.1.13,2013-02-16 12:55:00,
2013-02-16 06:05:00,28.5,20.9,30.08,WSW,246,3.0,3.0,73,0.00,,,0.00,Wunderground v.1.13,2013-02-16 13:05:00,
2013-02-16 06:10:00,28.4,21.2,30.08,WSW,248,1.0,14.0,74,0.00,,,0.00,Wunderground v.1.13,2013-02-16 13:10:00,
2013-02-16 06:15:00,28.4,21.2,30.08,WSW,242,1.0,1.0,74,0.00,,,0.00,Wunderground v.1.13,2013-02-16 13:15:00,
2013-02-16 06:20:00,28.4,21.2,30.08,WSW,244,2.0,2.0,74,0.00,,,0.00,Wunderground v.1.13,2013-02-16 13:20:00,
2013-02-16 06:25:00,28.5,21.3,30.08,WSW,245,2.0,2.0,74,0.00,,,0.00,Wunderground v.1.13,2013-02-16 13:25:00,
2013-02-16 06:30:00,28.4,21.2,30.08,WSW,254,2.0,14.0,74,0.00,,,0.00,Wunderground v.1.13,2013-02-16 13:30:00,
2013-02-16 06:35:00,28.2,21.0,30.08,WSW,249,3.0,14.0,74,0.00,,,0.00,Wunderground v.1.13,2013-02-16 13:35:00,
2013-02-16 06:40:00,28.1,20.9,30.08,West,259,5.0,5.0,74,0.00,,,0.00,Wunderground v.1.13,2013-02-16 13:40:00,
2013-02-16 06:50:00,27.9,21.0,30.08,WSW,250,5.0,5.0,75,0.00,,,0.00,Wunderground v.1.13,2013-02-16 13:50:00,
2013-02-16 06:55:00,27.9,21.0,30.08,WSW,246,3.0,14.0,75,0.00,,,0.00,Wunderground v.1.13,2013-02-16 13:55:00,
2013-02-16 07:05:00,28.1,21.2,30.08,West,261,2.0,2.0,75,0.00,,,0.00,Wunderground v.1.13,2013-02-16 14:05:00,
2013-02-16 07:10:00,28.2,21.3,30.08,WSW,251,1.0,14.0,75,0.00,,,0.00,Wunderground v.1.13,2013-02-16 14:10:00,
2013-02-16 07:15:00,28.7,21.5,30.08,WSW,254,2.0,14.0,74,0.00,,,0.00,Wunderground v.1.13,2013-02-16 14:15:00,
2013-02-16 07:25:00,29.1,21.5,30.08,West,275,2.0,2.0,73,0.00,,,0.00,Wunderground v.1.13,2013-02-16 14:25:00,
2013-02-16 07:30:00,29.8,22.2,30.08,WSW,252,2.0,14.0,73,0.00,,,0.00,Wunderground v.1.13,2013-02-16 14:30:00,
2013-02-16 07:35:00,30.7,22.4,30.08,West,268,4.0,4.0,71,0.00,,,0.00,Wunderground v.1.13,2013-02-16 14:35:00,
2013-02-16 07:40:00,31.5,22.8,30.08,WSW,256,5.0,14.0,70,0.00,,,0.00,Wunderground v.1.13,2013-02-16 14:40:00,
2013-02-16 07:50:00,32.9,23.1,30.08,WSW,246,4.0,14.0,67,0.00,,,0.00,Wunderground v.1.13,2013-02-16 14:50:00,
2013-02-16 07:55:00,33.5,23.7,30.08,WSW,246,2.0,2.0,67,0.00,,,0.00,Wunderground v.1.13,2013-02-16 14:55:00,
2013-02-16 08:00:00,34.3,24.1,30.08,WNW,297,1.0,14.0,66,0.00,,,0.00,Wunderground v.1.13,2013-02-16 15:00:00,
2013-02-16 08:05:00,37.8,23.1,30.07,WNW,292,5.0,14.0,55,0.00,,,0.00,Wunderground v.1.13,2013-02-16 15:05:00,
2013-02-16 08:15:00,40.9,22.7,30.07,NW,312,10.0,18.0,48,0.00,,,0.00,Wunderground v.1.13,2013-02-16 15:15:00,
2013-02-16 08:25:00,41.2,22.5,30.07,WNW,297,9.0,9.0,47,0.00,,,0.00,Wunderground v.1.13,2013-02-16 15:25:00,
2013-02-16 08:30:00,41.1,22.4,30.07,West,265,8.0,14.0,47,0.00,,,0.00,Wunderground v.1.13,2013-02-16 15:30:00,
2013-02-16 08:35:00,41.2,22.5,30.07,WNW,292,7.0,14.0,47,0.00,,,0.00,Wunderground v.1.13,2013-02-16 15:35:00,
2013-02-16 08:40:00,41.6,22.3,30.07,WNW,294,9.0,15.0,46,0.00,,,0.00,Wunderground v.1.13,2013-02-16 15:40:00,
2013-02-16 08:45:00,42.3,22.4,30.07,West,280,10.0,14.0,45,0.00,,,0.00,Wunderground v.1.13,2013-02-16 15:45:00,
2013-02-16 08:55:00,42.8,21.8,30.07,NW,304,12.0,19.0,43,0.00,,,0.00,Wunderground v.1.13,2013-02-16 15:55:00,
2013-02-16 09:00:00,42.9,21.9,30.07,NW,304,13.0,13.0,43,0.00,,,0.00,Wunderground v.1.13,2013-02-16 16:00:00,
2013-02-16 09:05:00,43.2,21.6,30.07,NW,316,12.0,14.0,42,0.00,,,0.00,Wunderground v.1.13,2013-02-16 16:05:00,
2013-02-16 09:10:00,43.5,21.9,30.07,WNW,296,12.0,14.0,42,0.00,,,0.00,Wunderground v.1.13,2013-02-16 16:10:00,
2013-02-16 09:15:00,43.9,21.7,30.07,WNW,290,12.0,14.0,41,0.00,,,0.00,Wunderground v.1.13,2013-02-16 16:15:00,
2013-02-16 09:20:00,43.9,21.7,30.06,NW,318,13.0,21.0,41,0.00,,,0.00,Wunderground v.1.13,2013-02-16 16:20:00,
2013-02-16 09:25:00,43.9,21.7,30.06,WNW,296,15.0,18.0,41,0.00,,,0.00,Wunderground v.1.13,2013-02-16 16:25:00,
2013-02-16 09:30:00,44.2,21.4,30.06,NW,321,13.0,18.0,40,0.00,,,0.00,Wunderground v.1.13,2013-02-16 16:30:00,
2013-02-16 09:35:00,44.1,21.9,30.06,NW,315,14.0,14.0,41,0.00,,,0.00,Wunderground v.1.13,2013-02-16 16:35:00,
2013-02-16 09:40:00,44.2,22.0,30.06,NNW,330,16.0,16.0,41,0.00,,,0.00,Wunderground v.1.13,2013-02-16 16:40:00,
2013-02-16 09:45:00,44.5,21.6,30.06,NW,310,15.0,15.0,40,0.00,,,0.00,Wunderground v.1.13,2013-02-16 16:45:00,
2013-02-16 09:50:00,44.5,21.6,30.05,NNW,339,15.0,16.0,40,0.00,,,0.00,Wunderground v.1.13,2013-02-16 16:50:00,
2013-02-16 10:00:00,45.5,21.9,30.05,WNW,292,14.0,14.0,39,0.00,,,0.00,Wunderground v.1.13,2013-02-16 17:00:00,
2013-02-16 10:05:00,45.8,22.2,30.05,WNW,294,12.0,15.0,39,0.00,,,0.00,Wunderground v.1.13,2013-02-16 17:05:00,
2013-02-16 10:10:00,46.1,21.9,30.05,WNW,286,12.0,12.0,38,0.00,,,0.00,Wunderground v.1.13,2013-02-16 17:10:00,
2013-02-16 10:15:00,46.2,22.6,30.05,NNW,334,11.0,11.0,39,0.00,,,0.00,Wunderground v.1.13,2013-02-16 17:15:00,
2013-02-16 10:20:00,46.2,22.0,30.05,WNW,284,12.0,12.0,38,0.00,,,0.00,Wunderground v.1.13,2013-02-16 17:20:00,
2013-02-16 10:24:00,46.5,22.2,30.05,WNW,296,13.0,20.0,38,0.00,,,0.00,Wunderground v.1.13,2013-02-16 17:24:00,
2013-02-16 10:30:00,46.5,22.2,30.05,NNW,339,14.0,14.0,38,0.00,,,0.00,Wunderground v.1.13,2013-02-16 17:30:00,
2013-02-16 10:35:00,46.5,22.2,30.05,NW,318,16.0,19.0,38,0.00,,,0.00,Wunderground v.1.13,2013-02-16 17:35:00,
2013-02-16 10:40:00,46.8,21.9,30.05,NW,324,16.0,16.0,37,0.00,,,0.00,Wunderground v.1.13,2013-02-16 17:40:00,
2013-02-16 10:45:00,47.1,22.1,30.05,NW,307,16.0,16.0,37,0.00,,,0.00,Wunderground v.1.13,2013-02-16 17:45:00,
2013-02-16 10:50:00,47.1,22.1,30.05,NW,304,14.0,15.0,37,0.00,,,0.00,Wunderground v.1.13,2013-02-16 17:50:00,
2013-02-16 11:00:00,47.9,21.5,30.05,WNW,290,12.0,12.0,35,0.00,,,0.00,Wunderground v.1.13,2013-02-16 18:00:00,
2013-02-16 11:05:00,47.4,22.4,30.05,WNW,296,14.0,14.0,37,0.00,,,0.00,Wunderground v.1.13,2013-02-16 18:05:00,
2013-02-16 11:10:00,47.9,22.2,30.05,NW,315,12.0,17.0,36,0.00,,,0.00,Wunderground v.1.13,2013-02-16 18:10:00,
2013-02-16 11:15:00,48.8,23.0,30.05,WNW,295,11.0,17.0,36,0.00,,,0.00,Wunderground v.1.13,2013-02-16 18:15:00,
2013-02-16 11:20:00,49.2,22.7,30.03,NW,304,12.0,19.0,35,0.00,,,0.00,Wunderground v.1.13,2013-02-16 18:20:00,
2013-02-16 11:25:00,49.6,22.3,30.03,NW,308,11.0,18.0,34,0.00,,,0.00,Wunderground v.1.13,2013-02-16 18:25:00,
2013-02-16 11:30:00,49.9,23.3,30.03,NNW,330,12.0,22.0,35,0.00,,,0.00,Wunderground v.1.13,2013-02-16 18:30:00,
2013-02-16 11:35:00,50.1,23.5,30.03,WNW,301,14.0,15.0,35,0.00,,,0.00,Wunderground v.1.13,2013-02-16 18:35:00,
2013-02-16 11:40:00,50.5,23.1,30.03,NW,308,13.0,13.0,34,0.00,,,0.00,Wunderground v.1.13,2013-02-16 18:40:00,
2013-02-16 11:45:00,50.7,22.6,30.03,NW,323,11.0,11.0,33,0.00,,,0.00,Wunderground v.1.13,2013-02-16 18:45:00,
2013-02-16 11:50:00,50.7,22.6,30.03,NNW,348,11.0,18.0,33,0.00,,,0.00,Wunderground v.1.13,2013-02-16 18:50:00,
2013-02-16 11:55:00,50.7,22.6,30.03,NW,321,12.0,15.0,33,0.00,,,0.00,Wunderground v.1.13,2013-02-16 18:55:00,
2013-02-16 12:05:00,51.0,22.1,30.02,NW,309,13.0,13.0,32,0.00,,,0.00,Wunderground v.1.13,2013-02-16 19:05:00,
2013-02-16 12:15:00,51.3,22.4,30.02,NW,316,13.0,17.0,32,0.00,,,0.00,Wunderground v.1.13,2013-02-16 19:15:00,
2013-02-16 12:20:00,51.4,22.5,30.02,West,275,14.0,17.0,32,0.00,,,0.00,Wunderground v.1.13,2013-02-16 19:20:00,
2013-02-16 12:25:00,51.9,22.9,30.02,NNW,332,13.0,13.0,32,0.00,,,0.00,Wunderground v.1.13,2013-02-16 19:25:00,
2013-02-16 12:30:00,52.2,23.2,30.02,NW,325,11.0,16.0,32,0.00,,,0.00,Wunderground v.1.13,2013-02-16 19:30:00,
2013-02-16 12:35:00,52.2,23.9,30.01,NNW,340,12.0,18.0,33,0.00,,,0.00,Wunderground v.1.13,2013-02-16 19:35:00,
2013-02-16 12:39:00,52.6,23.5,30.01,NW,305,13.0,17.0,32,0.00,,,0.00,Wunderground v.1.13,2013-02-16 19:39:00,
2013-02-16 12:45:00,53.1,24.0,30.01,West,267,13.0,15.0,32,0.00,,,0.00,Wunderground v.1.13,2013-02-16 19:45:00,
2013-02-16 12:50:00,53.2,24.1,30.01,NW,318,13.0,18.0,32,0.00,,,0.00,Wunderground v.1.13,2013-02-16 19:50:00,
2013-02-16 13:00:00,53.3,24.2,30.01,NNW,333,14.0,14.0,32,0.00,,,0.00,Wunderground v.1.13,2013-02-16 20:00:00,
2013-02-16 13:05:00,53.3,24.2,30.00,NNW,328,14.0,14.0,32,0.00,,,0.00,Wunderground v.1.13,2013-02-16 20:05:00,
2013-02-16 13:10:00,53.5,23.6,30.00,NNW,336,12.0,12.0,31,0.00,,,0.00,Wunderground v.1.13,2013-02-16 20:10:00,
2013-02-16 13:15:00,53.8,23.8,30.00,WNW,298,10.0,14.0,31,0.00,,,0.00,Wunderground v.1.13,2013-02-16 20:15:00,
2013-02-16 13:20:00,53.6,24.4,30.00,NW,317,11.0,15.0,32,0.00,,,0.00,Wunderground v.1.13,2013-02-16 20:20:00,
2013-02-16 13:30:00,53.9,23.9,30.00,NNW,333,12.0,14.0,31,0.00,,,0.00,Wunderground v.1.13,2013-02-16 20:30:00,
2013-02-16 13:35:00,54.2,24.2,29.98,NW,323,13.0,13.0,31,0.00,,,0.00,Wunderground v.1.13,2013-02-16 20:35:00,
2013-02-16 13:40:00,54.1,24.1,29.98,NW,304,14.0,22.0,31,0.00,,,0.00,Wunderground v.1.13,2013-02-16 20:40:00,
2013-02-16 13:50:00,54.2,23.4,29.98,NW,311,13.0,13.0,30,0.00,,,0.00,Wunderground v.1.13,2013-02-16 20:50:00,
2013-02-16 13:55:00,54.7,24.6,29.98,NW,306,10.0,14.0,31,0.00,,,0.00,Wunderground v.1.13,2013-02-16 20:55:00,
2013-02-16 14:00:00,55.0,24.9,29.98,NW,318,9.0,14.0,31,0.00,,,0.00,Wunderground v.1.13,2013-02-16 21:00:00,
2013-02-16 14:05:00,54.7,24.6,29.98,NW,315,12.0,12.0,31,0.00,,,0.00,Wunderground v.1.13,2013-02-16 21:05:00,
2013-02-16 14:10:00,54.5,24.4,29.98,NNW,331,13.0,14.0,31,0.00,,,0.00,Wunderground v.1.13,2013-02-16 21:10:00,
2013-02-16 14:20:00,55.1,25.0,29.97,NNW,338,11.0,11.0,31,0.00,,,0.00,Wunderground v.1.13,2013-02-16 21:20:00,
2013-02-16 14:25:00,55.0,24.1,29.97,NNW,328,11.0,15.0,30,0.00,,,0.00,Wunderground v.1.13,2013-02-16 21:25:00,
2013-02-16 14:30:00,54.7,25.4,29.97,NW,309,11.0,11.0,32,0.00,,,0.00,Wunderground v.1.13,2013-02-16 21:30:00,
2013-02-16 14:35:00,54.7,24.6,29.97,NNE,23,12.0,14.0,31,0.00,,,0.00,Wunderground v.1.13,2013-02-16 21:35:00,
2013-02-16 14:40:00,54.8,25.5,29.97,NW,306,12.0,16.0,32,0.00,,,0.00,Wunderground v.1.13,2013-02-16 21:40:00,
2013-02-16 14:45:00,54.8,25.5,29.97,NW,313,12.0,12.0,32,0.00,,,0.00,Wunderground v.1.13,2013-02-16 21:45:00,
2013-02-16 14:50:00,54.7,25.4,29.97,NNW,333,12.0,12.0,32,0.00,,,0.00,Wunderground v.1.13,2013-02-16 21:50:00,
2013-02-16 15:00:00,54.5,24.4,29.97,NW,319,12.0,17.0,31,0.00,,,0.00,Wunderground v.1.13,2013-02-16 22:00:00,
2013-02-16 15:05:00,54.5,25.2,29.96,NW,317,11.0,14.0,32,0.00,,,0.00,Wunderground v.1.13,2013-02-16 22:05:00,
2013-02-16 15:10:00,54.5,25.2,29.96,NNW,341,11.0,11.0,32,0.00,,,0.00,Wunderground v.1.13,2013-02-16 22:10:00,
2013-02-16 15:15:00,54.8,24.7,29.96,NNW,336,9.0,14.0,31,0.00,,,0.00,Wunderground v.1.13,2013-02-16 22:15:00,
2013-02-16 15:20:00,55.0,24.9,29.95,NNW,342,7.0,7.0,31,0.00,,,0.00,Wunderground v.1.13,2013-02-16 22:20:00,
2013-02-16 15:25:00,54.7,24.6,29.95,NW,321,9.0,14.0,31,0.00,,,0.00,Wunderground v.1.13,2013-02-16 22:25:00,
2013-02-16 15:30:00,54.5,25.2,29.95,NNW,338,9.0,14.0,32,0.00,,,0.00,Wunderground v.1.13,2013-02-16 22:30:00,
2013-02-16 15:35:00,54.7,25.4,29.95,NW,308,7.0,14.0,32,0.00,,,0.00,Wunderground v.1.13,2013-02-16 22:35:00,
2013-02-16 15:40:00,54.5,25.2,29.95,NNW,331,7.0,7.0,32,0.00,,,0.00,Wunderground v.1.13,2013-02-16 22:40:00,
2013-02-16 15:50:00,54.4,25.1,29.95,NW,308,7.0,14.0,32,0.00,,,0.00,Wunderground v.1.13,2013-02-16 22:50:00,
2013-02-16 15:55:00,54.4,25.9,29.95,NNW,337,6.0,6.0,33,0.00,,,0.00,Wunderground v.1.13,2013-02-16 22:55:00,
2013-02-16 16:00:00,54.4,25.9,29.95,NW,313,5.0,14.0,33,0.00,,,0.00,Wunderground v.1.13,2013-02-16 23:00:00,
2013-02-16 16:05:00,54.2,25.7,29.94,NW,311,5.0,14.0,33,0.00,,,0.00,Wunderground v.1.13,2013-02-16 23:05:00,
2013-02-16 16:10:00,54.1,26.3,29.94,NW,326,4.0,14.0,34,0.00,,,0.00,Wunderground v.1.13,2013-02-16 23:10:00,
2013-02-16 16:15:00,53.9,26.1,29.94,NNW,329,3.0,3.0,34,0.00,,,0.00,Wunderground v.1.13,2013-02-16 23:15:00,
2013-02-16 16:20:00,53.9,26.8,29.94,NNW,329,2.0,2.0,35,0.00,,,0.00,Wunderground v.1.13,2013-02-16 23:20:00,
2013-02-16 16:30:00,53.8,26.8,29.94,NNW,329,1.0,1.0,35,0.00,,,0.00,Wunderground v.1.13,2013-02-16 23:30:00,
2013-02-16 16:35:00,53.6,26.6,29.94,NNW,327,1.0,1.0,35,0.00,,,0.00,Wunderground v.1.13,2013-02-16 23:35:00,
2013-02-16 16:40:00,53.5,26.5,29.94,NNW,327,0.0,14.0,35,0.00,,,0.00,Wunderground v.1.13,2013-02-16 23:40:00,
2013-02-16 16:45:00,53.3,27.0,29.94,NNW,327,0.0,14.0,36,0.00,,,0.00,Wunderground v.1.13,2013-02-16 23:45:00,
2013-02-16 16:50:00,53.2,26.9,29.93,NNW,327,0.0,14.0,36,0.00,,,0.00,Wunderground v.1.13,2013-02-16 23:50:00,
2013-02-16 16:55:00,53.1,26.8,29.93,NNW,327,0.0,14.0,36,0.00,,,0.00,Wunderground v.1.13,2013-02-16 23:55:00,
2013-02-16 17:00:00,52.9,27.3,29.93,NNW,327,0.0,14.0,37,0.00,,,0.00,Wunderground v.1.13,2013-02-17 00:00:00,
2013-02-16 17:05:00,52.6,27.0,29.93,NNW,327,0.0,14.0,37,0.00,,,0.00,Wunderground v.1.13,2013-02-17 00:05:00,
2013-02-16 17:15:00,50.8,26.7,29.93,NNW,327,0.0,14.0,39,0.00,,,0.00,Wunderground v.1.13,2013-02-17 00:15:00,
2013-02-16 17:20:00,49.4,26.7,29.93,NNW,327,0.0,14.0,41,0.00,,,0.00,Wunderground v.1.13,2013-02-17 00:20:00,
2013-02-16 17:29:00,46.4,26.7,29.93,NNW,327,0.0,14.0,46,0.00,,,0.00,Wunderground v.1.13,2013-02-17 00:29:00,
2013-02-16 17:35:00,44.9,25.9,29.92,NNW,327,0.0,14.0,47,0.00,,,0.00,Wunderground v.1.13,2013-02-17 00:35:00,
2013-02-16 17:40:00,44.1,26.1,29.92,NNW,327,0.0,14.0,49,0.00,,,0.00,Wunderground v.1.13,2013-02-17 00:40:00,
2013-02-16 17:45:00,43.2,25.8,29.92,NNW,327,0.0,14.0,50,0.00,,,0.00,Wunderground v.1.13,2013-02-17 00:45:00,
2013-02-16 17:55:00,41.8,25.9,29.92,NNW,327,0.0,14.0,53,0.00,,,0.00,Wunderground v.1.13,2013-02-17 00:55:00,
2013-02-16 18:05:00,41.3,25.4,29.92,NNW,327,0.0,14.0,53,0.00,,,0.00,Wunderground v.1.13,2013-02-17 01:05:00,
2013-02-16 18:10:00,40.9,25.5,29.92,NNW,327,0.0,14.0,54,0.00,,,0.00,Wunderground v.1.13,2013-02-17 01:10:00,
2013-02-16 18:15:00,40.1,25.2,29.92,NNW,327,0.0,14.0,55,0.00,,,0.00,Wunderground v.1.13,2013-02-17 01:15:00,
2013-02-16 18:20:00,39.2,24.8,29.93,NNW,327,0.0,14.0,56,0.00,,,0.00,Wunderground v.1.13,2013-02-17 01:20:00,
2013-02-16 18:24:00,38.2,24.7,29.93,NNW,327,0.0,14.0,58,0.00,,,0.00,Wunderground v.1.13,2013-02-17 01:24:00,
2013-02-16 18:30:00,37.6,24.6,29.93,NNW,327,0.0,14.0,59,0.00,,,0.00,Wunderground v.1.13,2013-02-17 01:30:00,
2013-02-16 18:35:00,37.0,24.4,29.92,NNW,327,0.0,14.0,60,0.00,,,0.00,Wunderground v.1.13,2013-02-17 01:35:00,
2013-02-16 18:40:00,36.8,24.6,29.92,NNW,327,0.0,14.0,61,0.00,,,0.00,Wunderground v.1.13,2013-02-17 01:40:00,
2013-02-16 18:45:00,37.0,24.4,29.92,NNW,327,0.0,14.0,60,0.00,,,0.00,Wunderground v.1.13,2013-02-17 01:45:00,
2013-02-16 18:50:00,37.2,24.6,29.92,NNW,327,0.0,14.0,60,0.00,,,0.00,Wunderground v.1.13,2013-02-17 01:50:00,
2013-02-16 19:00:00,36.5,23.9,29.92,NNW,327,0.0,14.0,60,0.00,,,0.00,Wunderground v.1.13,2013-02-17 02:00:00,
2013-02-16 19:05:00,36.0,23.8,29.91,NNW,327,0.0,14.0,61,0.00,,,0.00,Wunderground v.1.13,2013-02-17 02:05:00,
2013-02-16 19:10:00,35.8,24.0,29.91,NNW,327,0.0,14.0,62,0.00,,,0.00,Wunderground v.1.13,2013-02-17 02:10:00,
2013-02-16 19:15:00,35.6,24.2,29.91,NNW,327,0.0,14.0,63,0.00,,,0.00,Wunderground v.1.13,2013-02-17 02:15:00,
2013-02-16 19:20:00,35.0,23.7,29.91,NNW,327,0.0,14.0,63,0.00,,,0.00,Wunderground v.1.13,2013-02-17 02:20:00,
2013-02-16 19:25:00,34.4,23.5,29.91,NNW,327,0.0,14.0,64,0.00,,,0.00,Wunderground v.1.13,2013-02-17 02:25:00,
2013-02-16 19:30:00,33.7,22.8,29.91,NNW,327,0.0,14.0,64,0.00,,,0.00,Wunderground v.1.13,2013-02-17 02:30:00,
2013-02-16 19:35:00,33.2,22.7,29.91,NNW,327,0.0,14.0,65,0.00,,,0.00,Wunderground v.1.13,2013-02-17 02:35:00,
2013-02-16 19:45:00,32.2,22.5,29.91,NNW,327,0.0,14.0,67,0.00,,,0.00,Wunderground v.1.13,2013-02-17 02:45:00,
2013-02-16 19:50:00,31.8,22.4,29.91,NNW,327,0.0,14.0,68,0.00,,,0.00,Wunderground v.1.13,2013-02-17 02:50:00,
2013-02-16 19:55:00,31.5,22.5,29.91,NNW,327,0.0,14.0,69,0.00,,,0.00,Wunderground v.1.13,2013-02-17 02:55:00,
2013-02-16 20:00:00,31.2,22.2,29.91,NNW,327,0.0,14.0,69,0.00,,,0.00,Wunderground v.1.13,2013-02-17 03:00:00,
2013-02-16 20:10:00,31.5,23.2,29.91,NW,321,0.0,14.0,71,0.00,,,0.00,Wunderground v.1.13,2013-02-17 03:10:00,
2013-02-16 20:20:00,32.5,23.8,29.91,NW,321,0.0,14.0,70,0.00,,,0.00,Wunderground v.1.13,2013-02-17 03:20:00,
2013-02-16 20:25:00,32.7,24.0,29.91,NW,317,0.0,14.0,70,0.00,,,0.00,Wunderground v.1.13,2013-02-17 03:25:00,
2013-02-16 20:35:00,34.0,24.9,29.90,West,276,0.0,14.0,69,0.00,,,0.00,Wunderground v.1.13,2013-02-17 03:35:00,
2013-02-16 20:40:00,34.6,25.1,29.90,WSW,244,1.0,14.0,68,0.00,,,0.00,Wunderground v.1.13,2013-02-17 03:40:00,
2013-02-16 20:45:00,35.3,25.1,29.90,WSW,246,2.0,2.0,66,0.00,,,0.00,Wunderground v.1.13,2013-02-17 03:45:00,
2013-02-16 20:55:00,34.9,24.7,29.90,WSW,244,0.0,14.0,66,0.00,,,0.00,Wunderground v.1.13,2013-02-17 03:55:00,
2013-02-16 21:00:00,34.6,24.8,29.90,WSW,244,0.0,14.0,67,0.00,,,0.00,Wunderground v.1.13,2013-02-17 04:00:00,
2013-02-16 21:05:00,34.3,24.5,29.90,WSW,244,0.0,14.0,67,0.00,,,0.00,Wunderground v.1.13,2013-02-17 04:05:00,
2013-02-16 21:10:00,33.8,24.4,29.90,WSW,244,0.0,14.0,68,0.00,,,0.00,Wunderground v.1.13,2013-02-17 04:10:00,
2013-02-16 21:15:00,33.5,24.1,29.90,WSW,244,0.0,14.0,68,0.00,,,0.00,Wunderground v.1.13,2013-02-17 04:15:00,
2013-02-16 21:19:00,33.2,24.1,29.90,WSW,244,0.0,14.0,69,0.00,,,0.00,Wunderground v.1.13,2013-02-17 04:19:00,
2013-02-16 21:25:00,32.9,24.2,29.90,WSW,244,0.0,14.0,70,0.00,,,0.00,Wunderground v.1.13,2013-02-17 04:25:00,
2013-02-16 21:30:00,32.7,24.0,29.90,WSW,244,0.0,14.0,70,0.00,,,0.00,Wunderground v.1.13,2013-02-17 04:30:00,
2013-02-16 21:35:00,32.7,24.3,29.90,WSW,246,0.0,14.0,71,0.00,,,0.00,Wunderground v.1.13,2013-02-17 04:35:00,
2013-02-16 21:40:00,32.5,24.1,29.90,WSW,246,0.0,14.0,71,0.00,,,0.00,Wunderground v.1.13,2013-02-17 04:40:00,
2013-02-16 21:45:00,32.5,24.1,29.90,WSW,246,0.0,14.0,71,0.00,,,0.00,Wunderground v.1.13,2013-02-17 04:45:00,
2013-02-16 21:49:00,32.5,23.8,29.90,WSW,248,0.0,14.0,70,0.00,,,0.00,Wunderground v.1.13,2013-02-17 04:49:00,
2013-02-16 21:55:00,32.5,23.8,29.90,WSW,247,0.0,14.0,70,0.00,,,0.00,Wunderground v.1.13,2013-02-17 04:55:00,
2013-02-16 22:00:00,32.2,23.5,29.90,WSW,247,0.0,14.0,70,0.00,,,0.00,Wunderground v.1.13,2013-02-17 05:00:00,
2013-02-16 22:05:00,31.8,23.1,29.90,WSW,247,0.0,14.0,70,0.00,,,0.00,Wunderground v.1.13,2013-02-17 05:05:00,
2013-02-16 22:10:00,31.3,22.6,29.90,WSW,247,0.0,14.0,70,0.00,,,0.00,Wunderground v.1.13,2013-02-17 05:10:00,
2013-02-16 22:15:00,31.0,22.7,29.90,WSW,247,0.0,14.0,71,0.00,,,0.00,Wunderground v.1.13,2013-02-17 05:15:00,
2013-02-16 22:20:00,30.9,22.6,29.89,WSW,247,0.0,14.0,71,0.00,,,0.00,Wunderground v.1.13,2013-02-17 05:20:00,
2013-02-16 22:25:00,30.6,22.6,29.89,WSW,247,0.0,14.0,72,0.00,,,0.00,Wunderground v.1.13,2013-02-17 05:25:00,
2013-02-16 22:30:00,30.4,22.8,29.89,WSW,247,0.0,14.0,73,0.00,,,0.00,Wunderground v.1.13,2013-02-17 05:30:00,
2013-02-16 22:35:00,30.6,23.0,29.88,WSW,247,0.0,14.0,73,0.00,,,0.00,Wunderground v.1.13,2013-02-17 05:35:00,
2013-02-16 22:40:00,30.9,22.9,29.88,WSW,247,0.0,14.0,72,0.00,,,0.00,Wunderground v.1.13,2013-02-17 05:40:00,
2013-02-16 22:45:00,31.2,23.2,29.88,WSW,247,0.0,14.0,72,0.00,,,0.00,Wunderground v.1.13,2013-02-17 05:45:00,
2013-02-16 22:50:00,31.3,23.0,29.88,WSW,247,0.0,14.0,71,0.00,,,0.00,Wunderground v.1.13,2013-02-17 05:50:00,
2013-02-16 22:55:00,31.3,22.6,29.88,WSW,247,0.0,14.0,70,0.00,,,0.00,Wunderground v.1.13,2013-02-17 05:55:00,
2013-02-16 23:00:00,31.0,22.4,29.88,WSW,247,0.0,14.0,70,0.00,,,0.00,Wunderground v.1.13,2013-02-17 06:00:00,
2013-02-16 23:05:00,30.7,22.4,29.87,WSW,247,0.0,14.0,71,0.00,,,0.00,Wunderground v.1.13,2013-02-17 06:05:00,
2013-02-16 23:10:00,30.4,21.8,29.87,WSW,247,0.0,14.0,70,0.00,,,0.00,Wunderground v.1.13,2013-02-17 06:10:00,
2013-02-16 23:15:00,30.0,21.7,29.87,WSW,247,0.0,14.0,71,0.00,,,0.00,Wunderground v.1.13,2013-02-17 06:15:00,
2013-02-16 23:20:00,29.3,21.1,29.86,WSW,247,0.0,14.0,71,0.00,,,0.00,Wunderground v.1.13,2013-02-17 06:20:00,
2013-02-16 23:25:00,29.0,21.1,29.86,WSW,247,0.0,14.0,72,0.00,,,0.00,Wunderground v.1.13,2013-02-17 06:25:00,
2013-02-16 23:30:00,28.7,20.8,29.86,WSW,247,0.0,14.0,72,0.00,,,0.00,Wunderground v.1.13,2013-02-17 06:30:00,
2013-02-16 23:40:00,28.5,20.9,29.86,WSW,247,0.0,14.0,73,0.00,,,0.00,Wunderground v.1.13,2013-02-17 06:40:00,
2013-02-16 23:45:00,28.4,21.2,29.86,WSW,247,0.0,14.0,74,0.00,,,0.00,Wunderground v.1.13,2013-02-17 06:45:00,
2013-02-16 23:50:00,28.8,21.6,29.86,WSW,247,0.0,14.0,74,0.00,,,0.00,Wunderground v.1.13,2013-02-17 06:50:00,
2013-02-16 23:54:00,29.4,22.1,29.86,WSW,247,0.0,14.0,74,0.00,,,0.00,Wunderground v.1.13,2013-02-17 06:54:00,